EHI
0 0 0 0 0 0 0 0 0 0 0 0 0 0 0 0 0 0 0 0 0 0 0 0 0 0 0 0 0 0 0 0 0 0 0 0 0 0 0 0 0 0 0
0 0 0 0 0 0 0 0 0 0 0 0 0 0 0 0 0 0 0 0 0 0 0 0 0 0 0 0 0 0 0 0 0 0 0 0 0 0 0 0 0 0 0
0 0 0 0 0 0 0 0 0 0 0 0 0 0 0 0 0 0 0 0 0 0 0 0 0 0 0 0 0 0 0 0 0 0 0 0 0 0 0 0 0 0 0
0 0 0 0 0 0 0 0 0 0 0 0 0 0 0 0 0 0 0 0 0 0 0 0 0 0 0 0 0 0 0 0 0 0 0 0 0 0 0 0 0 0 0
0 0 0 0 0 0 0 0 0 0 0 0 0 0 0 0 0 0 0 0 0 0 0 0 0 0 0 0 0 0 0 0 0 0 0 0 0 0 0 0 0 0 0
0 0 0 0 0 0 0 0 0 0 0 0 0 0 0 0 0 0 0 0 0 0 0 0 0 0 0 0 0 0 0 0 0 0 0 0 0 0 0 0 0 0 0
0 0 0 0 0 0 0 0 0 0 0 0 0 0 0 0 0 0 0 0 0 0 0 0 0 0 0 0 0 0 0 0 0 0 0 0 0 0 0 0 0 0 0
0 0 0 0 0 0 0 0 0 0 0 0 0 0 0 0 0 0 0 0 0 0 0 0 0 0 0 0 0 0 0 0 0 0 0 0 0 0 0 0 0 0 0
0 0 0 0 0 0 0 0 0 0 0 0 0 0 0 0 0 0 0 0 0 0 0 0 0 0 0 0 0 0 0 0 0 0 0 0 0 0 0 0 0 0 0
0 0 0 0 0 0 0 0 0 0 0 0 0 0 0 0 0 0 0 0 0 0 0 0 0 0 0 0 0 0 0 0 0 0 0 0 0 0 0 0 0 0 0
0 0 0 0 0 0 0 0 0 0 0 0 0 0 0 0 0 0 0 0 0 0 0 0 0 0 0 0 0 0 0 0 0 0 0 0 0 0 0 0 0 0 0
0 0 0 0 0 0 0 0 0 0 0 0 0 0 0 0 0 0 0 0 0 0 0 0 0 0 0 0 0 0 0 0 0 0 0 0 0 0 0 0 0 0 0
0 0 0 0 0 0 0 0 0 0 0 0 0 0 0 0 0 0 0 0 0 0 0 0 0 0 0 0 0 0 0 0 0 0 0 0 0 0 0 0 0 0 0
0 0 0 0 0 0 0 0 0 0 0 0 0 0 0 0 0 0 0 0 0 0 0 0 0 0 0 0 0 0 0 0 0 0 0 0 0 0 0 0 0 0 0
0 0 0 0 0 0 0 0 0 0 0 0 0 0 0 0 0 0 0 0 0 0 0 0 0 0 0 0 0 0 0 0 0 0 0 0 0 0 0 0 0 0 0
0 0 0 0 0 0 0 0 0 0 0 0 0 0 0 0 0 0 0 0 0 0 0 0 0 0 0 0 0 0 0 0 0 0 0 0 0 0 0 0 0 0 0
0 0 0 0 0 0 0 0 0 0 0 0 0 0 0 0 0 0 0 0 0 0 0 0 0 0 0 0 0 0 0 0 0 0 0 0 0 0 0 0 0 0 0
0 0 0 0 0 0 0 0 0 0 0 0 0 0 0 0 0 0 0 0 0 0 0 0 0 0 0 0 0 0 0 0 0 0 0 0 0 0 0 0 0 0 0
0 0 0 0 0 0 0 0 0 0 0 0 0 0 0 0 0 0 0 0 0 0 0 0 0 0 0 0 0 0 0 0 0 0 0 0 0 0 0 0 0 0 0
0 0 0 0 0 0 0 0 0 0 0 0 0 0 0 0 0 0 0 0 0 0 0 0 0 0 0 0 0 0 0 0 0 0 0 0 0 0 0 0 0 0 0
0 0 0 0 0 0 0 0 0 0 0 0 0 0 0 0 0 0 0 0 0 0 0 0 0 0 0 0 0 0 0 0 0 0 0 0 0 0 0 0 0 0 0
0 0 0 0 0 0 0 0 0 0 0 0 0 0 0 0 0 0 0 0 0 0 0 0 0 0 0 0 0 0 0 0 0 0 0 0 0 0 0 0 0 0 0
0 0 0 0 0 0 0 0 0 0 0 0 0 0 0 0 0 0 0 0 0 0 0 0 0 0 0 0 0 0 0 0 0 0 0 0 0 0 0 0 0 0 0
0 0 0 0 0 0 0 0 0 0 0 0 0 0 0 0 0 0 0 0 0 0 0 0 0 0 0 0 0 0 0 0 0 0 0 0 0 0 0 0 0 0 0
0 0 0 0 0 0 0 0 0 0 0 0 0 0 0 0 0 0 0 0 0 0 0 0 0 0 0 0 0 0 0 0 0 0 0 0 0 0 0 0 0 0 0
0 0 0 0 0 0 0 0 0 0 0 0 0 0 0 0 0 0 0 0 0 0 0 0 0 0 0 0 0 0 0 0 0 0 0 0 0 0 0 0 0 0 0
Wind_Speed
5 5 4 4 4 4 4 4 4 4 4 4 3 3 3 2 2 2 1 1 1 0 0 0 1 1 1 1 1 1 2 2 4 4 3 3 4 5 5 5 5 5 6
5 5 4 4 4 4 4 3 4 4 3 3 3 3 3 2 2 2 1 1 1 0 0 0 1 1 1 1 1 2 2 2 3 5 4 4 4 5 5 5 6 5 4
5 4 4 4 4 4 3 3 3 3 3 3 3 3 2 2 2 2 1 1 1 1 1 1 1 1 1 1 2 2 2 3 2 4 5 4 4 4 5 5 5 4 5
4 4 4 4 4 4 3 3 3 3 3 3 3 2 2 2 1 1 1 1 1 1 1 1 1 1 2 2 3 3 3 3 3 3 4 4 4 4 3 4 4 3 4
4 4 4 4 3 3 3 3 3 2 2 2 2 2 1 1 1 1 1 1 1 1 1 1 2 3 4 4 3 3 3 3 3 4 4 4 4 3 4 4 5 4 4
4 4 4 4 3 3 3 3 3 2 2 2 2 1 1 1 1 2 1 1 1 1 2 2 3 4 5 6 7 7 6 4 4 4 4 5 5 5 4 5 4 5 5
4 4 3 3 3 3 3 3 2 2 2 2 1 1 1 1 2 2 2 1 1 2 2 2 3 3 4 3 6 7 7 9 8 5 5 5 5 5 5 6 5 5 6
4 3 3 3 3 3 2 2 2 1 2 2 1 1 1 1 2 3 3 1 2 2 2 3 3 3 4 4 3 4 4 5 6 5 4 5 6 5 5 5 5 5 5
3 3 2 2 3 3 2 2 1 1 1 1 1 1 1 1 3 3 3 1 2 2 3 3 3 3 6 7 4 4 5 5 7 8 9 9 11 11 9 4 4 4 6
2 2 2 2 2 2 2 1 1 1 1 1 0 1 1 1 3 3 3 1 2 2 3 3 5 6 7 8 4 3 4 5 4 5 6 8 7 8 11 5 4 4 5
2 2 2 2 2 2 1 1 1 1 1 0 1 1 1 2 3 4 3 1 2 2 3 3 3 7 8 8 7 3 6 6 3 4 4 4 4 4 4 4 3 4 5
3 2 2 2 1 1 2 1 1 1 1 1 1 1 1 2 2 3 4 4 3 2 2 3 3 7 8 9 6 7 9 7 3 3 3 4 4 4 4 4 5 5 5
2 2 2 2 1 1 1 1 1 1 1 1 1 1 1 1 2 4 5 5 6 3 3 6 7 8 8 6 8 9 7 3 3 3 4 4 4 4 4 4 5 5 6
2 2 2 2 1 1 0 0 0 1 1 1 1 1 1 1 1 1 2 3 5 4 4 5 8 8 6 6 6 5 3 3 3 3 4 4 3 3 4 4 4 4 5
2 2 2 1 1 1 0 0 0 1 2 2 2 2 2 2 3 5 3 2 2 3 3 2 2 2 2 2 3 3 2 3 3 3 3 4 4 4 5 4 4 4 5
2 2 1 1 0 1 0 1 2 2 3 3 3 3 3 5 6 7 7 7 7 6 4 2 2 3 3 3 3 3 3 3 3 3 4 4 4 5 5 5 4 4 5
1 1 1 1 1 1 0 0 1 2 3 4 4 5 5 6 7 7 7 7 7 6 2 2 3 3 3 3 3 4 4 4 3 4 4 4 4 5 5 5 5 5 6
1 1 1 1 0 1 1 1 1 1 2 2 4 6 7 8 8 7 6 5 4 3 2 3 3 3 3 3 4 4 4 4 3 4 4 4 4 5 5 5 5 6 6
1 0 1 1 1 1 1 1 1 2 2 2 2 4 6 7 7 7 5 2 2 3 3 3 3 3 3 4 4 4 4 4 4 4 4 5 4 4 5 5 6 10 8
1 2 2 1 1 1 1 1 1 2 2 2 2 3 3 3 2 3 3 2 2 3 3 3 3 4 4 4 4 4 5 5 5 5 5 5 5 5 6 7 6 6 6
1 1 3 2 1 1 1 1 2 2 2 3 3 4 6 2 2 3 3 3 3 3 3 4 4 4 4 4 4 5 5 5 5 5 5 5 5 5 5 5 6 6 6
1 1 1 1 1 1 2 1 2 2 3 3 3 4 8 4 3 3 3 4 3 3 3 4 4 4 4 4 4 5 5 5 5 5 5 5 5 5 5 6 6 6 6
1 1 1 1 2 3 3 2 2 2 3 3 4 4 4 4 4 4 4 4 4 4 4 4 4 4 4 4 4 4 5 6 6 6 6 6 6 6 6 6 7 7 7
1 1 2 2 2 2 2 2 3 3 3 4 4 4 4 4 4 5 5 4 4 4 4 4 5 6 8 6 5 5 5 6 6 6 7 7 7 7 6 7 7 8 8
1 1 2 2 2 2 3 3 3 4 4 4 4 4 4 5 5 5 5 4 5 5 6 6 5 6 8 9 8 7 11 15 13 8 7 7 8 8 7 8 7 8 9
1 2 2 2 3 3 3 4 4 4 4 5 5 5 5 5 5 5 5 5 5 6 6 6 7 8 9 8 10 13 16 17 17 16 9 6 7 7 7 7 8 8 9
Wind_Direction
137 134 129 131 130 129 134 136 137 135 134 141 143 139 138 138 130 122 124 122 121 102 3 348 291 293 295 294 292 289 286 277 278 293 300 307 309 307 309 304 302 297 301
133 132 131 128 124 125 128 131 133 136 135 137 140 142 147 146 139 142 150 142 155 206 267 276 287 303 301 293 290 285 279 276 275 290 300 302 296 298 297 299 306 306 297
123 128 129 131 132 133 131 128 131 136 138 137 140 146 148 149 149 156 162 164 186 218 236 249 270 284 288 293 290 280 279 286 281 282 291 294 292 293 300 299 298 296 303
126 129 133 138 138 135 131 128 130 136 138 141 145 146 147 153 161 169 171 165 186 231 248 263 273 265 267 273 275 273 275 282 283 281 286 290 290 293 300 302 300 296 299
129 129 128 124 123 122 124 126 124 128 132 135 135 133 144 163 177 168 189 202 215 249 264 268 270 273 279 279 280 276 275 269 272 275 282 291 294 303 304 301 299 301 287
127 127 121 121 122 122 125 124 124 129 133 132 141 147 167 194 207 225 247 246 254 252 266 274 272 272 280 288 293 293 289 277 272 272 280 283 288 291 298 296 296 303 295
122 123 122 123 128 128 125 127 138 148 146 150 156 154 179 210 228 243 262 280 264 261 263 273 280 283 290 286 291 295 296 294 287 275 269 274 283 287 290 289 281 283 284
120 121 123 124 128 126 126 134 141 144 160 170 169 178 193 229 249 259 270 273 261 263 263 263 269 279 278 283 286 291 288 289 289 285 266 272 279 279 272 278 283 290 289
119 119 121 125 131 133 139 142 141 143 151 161 163 181 193 252 267 264 269 269 268 270 269 267 269 266 276 281 283 283 290 292 293 291 291 294 297 296 294 296 292 291 293
124 121 118 121 128 135 142 138 136 145 154 160 202 202 205 233 269 273 274 264 274 282 283 280 279 277 283 286 275 267 280 287 293 299 300 301 299 299 299 289 276 278 288
107 105 105 108 122 134 135 133 133 137 127 167 236 264 249 249 266 274 279 280 278 286 291 290 285 292 293 293 291 270 274 289 288 287 289 290 289 286 288 281 271 265 269
98 102 106 109 112 112 128 128 126 147 166 204 221 257 254 258 273 278 285 286 290 280 283 288 288 294 296 297 296 292 294 298 290 286 286 287 289 290 291 287 280 271 264
94 106 111 100 89 96 131 147 152 170 182 230 224 243 272 282 278 286 292 293 293 290 281 291 297 298 298 297 294 296 298 292 283 279 282 283 282 284 289 292 288 283 278
104 107 104 102 95 92 135 163 154 186 202 247 259 263 274 283 277 287 289 294 296 294 290 290 296 298 296 295 298 300 292 280 283 275 280 282 288 288 288 291 292 295 292
87 83 77 80 93 84 58 12 259 231 229 233 238 245 256 265 275 287 293 285 279 273 287 281 283 289 291 290 289 285 285 296 294 290 288 291 292 291 290 289 284 286 283
79 66 60 64 65 71 75 6 335 312 302 293 289 285 280 282 287 289 291 294 295 297 296 285 278 275 278 285 286 283 279 279 276 277 281 284 287 291 294 293 286 282 282
84 54 31 29 34 14 358 341 332 330 320 313 306 302 298 302 302 302 301 299 299 304 300 287 278 275 277 281 281 279 275 272 270 270 273 276 280 283 286 290 291 289 286
65 10 3 4 351 323 307 301 294 298 309 312 310 306 307 309 309 307 310 312 304 299 283 279 283 286 284 282 283 283 282 281 275 273 271 273 273 275 279 283 284 284 286
8 355 337 319 303 298 304 305 302 303 299 299 307 313 315 317 315 312 312 297 286 285 284 283 282 283 286 288 286 283 280 278 277 275 273 271 271 271 274 276 277 282 284
311 316 328 321 311 317 319 313 307 303 301 298 294 296 306 317 314 315 313 300 284 282 282 280 281 280 280 280 285 286 283 277 274 271 272 273 271 268 270 273 274 277 277
309 308 320 327 313 306 303 294 291 292 293 295 292 294 302 298 288 289 291 287 279 279 282 283 281 280 276 277 279 282 283 282 280 276 274 274 274 274 273 272 272 274 277
299 295 297 296 299 293 290 285 287 287 289 292 295 300 307 306 289 282 283 285 283 277 276 279 280 277 276 274 275 276 277 279 279 278 275 274 272 271 272 274 275 276 277
296 301 304 297 290 292 305 297 286 282 284 286 288 290 292 290 288 284 283 284 285 284 282 279 279 281 281 279 274 270 272 274 275 275 275 276 274 273 271 271 273 276 277
277 275 273 277 280 275 279 280 279 280 280 280 282 284 284 282 282 284 284 284 283 282 281 281 278 279 282 284 280 275 272 276 275 270 266 267 269 270 269 270 271 271 273
271 275 278 274 275 275 276 277 275 275 278 281 281 282 281 280 280 281 282 282 283 281 282 281 279 281 282 281 281 279 282 286 285 281 266 261 263 265 265 265 266 270 270
276 276 276 273 271 271 272 276 277 277 277 279 278 277 277 277 278 279 279 278 280 281 281 280 278 280 282 281 279 282 287 289 289 288 281 268 266 268 265 265 264 265 268